SV2JU-2 Weather Reports


time (UTC)temp
C
wind
direction
speed
KPH
gust
KPH
rain 1hr
cm
rain 24hr
cm
rain mn
cm
humidity
%
barometer
mb
20260504021703 11 0 0.0 0.0 0.00 0.00 0.00 23 1018.0
20260504020432 11 0 0.0 0.0 0.00 0.00 0.00 23 1018.0
20260504015203 11 0 0.0 0.0 0.00 0.00 0.00 23 1018.0
20260504013932 11 0 0.0 0.0 0.00 0.00 0.00 24 1018.0
20260504012702 11 0 0.0 0.0 0.00 0.00 0.00 25 1018.0
20260504011432 11 0 0.0 0.0 0.00 0.00 0.00 24 1018.0
20260504010202 11 0 0.0 0.0 0.00 0.00 0.00 23 1018.0
20260504004932 11 0 0.0 0.0 0.00 0.00 0.00 23 1018.0
20260504003702 11 0 0.0 0.0 0.00 0.00 0.00 22 1018.0
20260504002431 12 0 0.0 0.0 0.00 0.00 0.00 19 1018.0
20260504001202 12 0 0.0 0.0 0.00 0.00 0.00 19 1018.0
20260503235932 12 0 0.0 0.0 0.00 0.00 0.00 19 1018.0
20260503234703 12 32 0.0 3.2 0.00 0.00 0.00 19 1018.0
20260503233432 12 32 0.0 3.2 0.00 0.00 0.00 19 1018.0
20260503232205 12 15 0.0 3.2 0.00 0.00 0.00 19 1018.0
20260503230935 12 10 1.6 3.2 0.00 0.00 0.00 19 1018.0
20260503225704 12 0 0.0 0.0 0.00 0.00 0.00 19 1018.0
20260503220702 12 0 0.0 0.0 0.00 0.00 0.00 17 1018.0
20260503215431 12 0 0.0 0.0 0.00 0.00 0.00 17 1018.0
20260503214202 12 0 0.0 0.0 0.00 0.00 0.00 16 1018.0
20260503212931 13 0 0.0 0.0 0.00 0.00 0.00 15 1018.0
20260503211702 13 0 0.0 0.0 0.00 0.00 0.00 15 1018.0
20260503210431 13 0 0.0 0.0 0.00 0.00 0.00 16 1018.0
20260503205202 13 0 0.0 0.0 0.00 0.00 0.00 16 1018.0
20260503203931 13 0 0.0 0.0 0.00 0.00 0.00 15 1018.0
20260503202702 13 156 1.6 4.8 0.00 0.00 0.00 14 1018.0
20260503201431 13 0 0.0 0.0 0.00 0.00 0.00 13 1018.0
20260503200202 13 0 0.0 0.0 0.00 0.00 0.00 14 1018.0
20260503194931 13 0 0.0 0.0 0.00 0.00 0.00 16 1018.0
20260503193702 13 0 0.0 0.0 0.00 0.00 0.00 16 1018.0
20260503192431 13 0 0.0 0.0 0.00 0.00 0.00 15 1018.0
20260503191202 13 0 0.0 0.0 0.00 0.00 0.00 16 1018.0
20260503185931 13 0 0.0 0.0 0.00 0.00 0.00 15 1018.0
20260503184702 13 0 0.0 0.0 0.00 0.00 0.00 13 1018.0
20260503183431 14 0 0.0 0.0 0.00 0.00 0.00 12 1017.0
20260503182202 14 159 0.0 4.8 0.00 0.00 0.00 11 1017.0
20260503180931 15 22 1.6 8.0 0.00 0.00 0.00 9 1017.0
20260503175702 15 22 4.8 11.3 0.00 0.00 0.00 9 1017.0
20260503174431 15 23 0.0 4.8 0.00 0.00 0.00 8 1017.0
20260503173202 15 8 0.0 3.2 0.00 0.00 0.00 9 1017.0
20260503171931 15 14 0.0 3.2 0.00 0.00 0.00 9 1017.0
20260503170702 15 15 3.2 8.0 0.00 0.00 0.00 8 1017.0
20260503150201 16 356 3.2 8.0 0.00 0.00 0.00 8 1016.0
20260503130707 15 252 6.4 11.3 0.00 0.00 0.00 16 1017.0
20260503110208 15 243 4.8 9.7 0.00 0.00 0.00 19 1018.0
20260503080707 12 17 4.8 11.3 0.00 0.00 0.00 22 1019.0
20260503072936 12 14 8.0 12.9 0.00 0.00 0.00 26 1018.0
20260503071707 12 15 6.4 12.9 0.00 0.00 0.00 26 1018.0
20260503070436 12 16 6.4 12.9 0.00 0.08 0.00 25 1018.0
20260503054936 13 16 1.6 9.7 0.00 0.08 0.00 40 1018.0
20260503053706 13 271 0.0 6.4 0.00 0.08 0.00 46 1018.0
20260503052435 11 0 0.0 0.0 0.00 0.08 0.00 48 1018.0
20260503045935 11 0 0.0 0.0 0.00 0.08 0.00 48 1017.0
20260503044708 11 0 0.0 0.0 0.00 0.08 0.00 48 1017.0
20260503043435 10 0 0.0 0.0 0.00 0.08 0.00 48 1017.0
20260503042207 11 283 0.0 3.2 0.00 0.08 0.00 47 1017.0
20260503040935 10 0 0.0 0.0 0.00 0.08 0.00 46 1017.0
20260503035706 10 18 0.0 4.8 0.00 0.08 0.00 43 1017.0
20260503034435 10 11 1.6 6.4 0.00 0.08 0.00 43 1017.0
20260503031935 10 19 0.0 3.2 0.00 0.08 0.00 47 1017.0
20260503030706 10 15 1.6 8.0 0.00 0.08 0.00 47 1017.0
20260503025435 10 26 0.0 4.8 0.00 0.08 0.00 47 1017.0
20260503024206 10 17 3.2 11.3 0.00 0.08 0.00 47 1017.0
20260503022935 10 4 0.0 3.2 0.00 0.08 0.00 47 1017.0